Regional Weather Roundup
Issued by NWS

Home | Current Version | Previous Version | Text Only | Print | Product List | Glossary Off
Versions: 1 2 3 4 5 6 7 8 9 10 11 12 13 14 15 16 17 18 19 20 21 22 23 24 25 26 27 28 29 30 31 32 33 34 35 36 37 38 39 40 41 42 43 44 45 46 47 48 49 50

852
ASUS43 KLMK 240610
RWRKY
KENTUCKY REGIONAL WEATHER ROUNDUP
NATIONAL WEATHER SERVICE LOUISVILLE KY
100 AM EST FRI FEB 24 2017

NOTE "FAIR" INDICATES FEW OR NO CLOUDS BELOW 12,000 FEET
WITH NO SIGNIFICANT WEATHER AND/OR OBSTRUCTIONS TO VISIBILITY.

KYZ001>023-026-027-061>063-070>075-240700-
WESTERN AND SOUTH CENTRAL KENTUCKY

CITY           SKY/WX    TMP DP  RH WIND       PRES   REMARKS
PADUCAH        MOCLDY    65  55  70 S15G25    29.62F
HENDERSON      MOCLDY    63  54  72 S13       29.65R
OWENSBORO      MOCLDY    63  56  78 S14       29.67S
HOPKINSVILLE   CLEAR     64  55  71 S10       29.70S
BOWLING GREEN  PTCLDY    62  54  74 S7        29.73S
GLASGOW        PTCLDY    62  52  71 S7        29.74S
$$

KYZ024-025-028>034-038-045-046-053-240700-
NORTH CENTRAL KENTUCKY

CITY           SKY/WX    TMP DP  RH WIND       PRES   REMARKS
LOUISVILLE/SDF CLOUDY    61  54  77 SE9       29.71R
LOUISVILLE/LOU CLOUDY    63  54  72 S5        29.72S
FORT KNOX      MOCLDY    60  53  78 SE7       29.70S
$$

KYZ035>037-039>044-047>052-055>060-089>105-240700-
NORTHEAST KENTUCKY

CITY           SKY/WX    TMP DP  RH WIND       PRES   REMARKS
LEXINGTON      PTCLDY    59  51  75 S8        29.76S
COVINGTON      MOCLDY    60  55  83 S10       29.72F
FRANKFORT      PTCLDY    59  52  77 SE7       29.73S
$$

KYZ054-064>069-076>088-106>120-240700-
SOUTHEAST KENTUCKY

CITY           SKY/WX    TMP DP  RH WIND       PRES   REMARKS
JACKSON        MOCLDY    61  51  70 VRB3      29.81F
LONDON         PTCLDY    54  48  80 CALM      29.80F
SOMERSET       PTCLDY    55  50  82 CALM      29.80F
MIDDLESBORO    PTCLDY    49  49  99 CALM      29.85S
MONTICELLO     PTCLDY    61  53  75 E7        29.80F
$$





USA.gov is the U.S. government's official web portal to all federal, state and local government web resources and services.